Time,TemperatureF,DewpointF,PressureIn,WindDirection,WindDirectionDegrees,WindSpeedMPH,WindSpeedGustMPH,Humidity,HourlyPrecipIn,Conditions,Clouds,dailyrainin,SoftwareType,DateUTC
2013-04-12 00:03:00,76.0,76.0,29.87,SSE,161,9.0,13.0,100,0.00,,,0.00,,2013-04-12 04:03:00,
2013-04-12 00:13:00,76.0,76.0,29.87,SSE,161,9.0,13.0,100,0.00,,,0.00,,2013-04-12 04:13:00,
2013-04-12 00:23:00,76.0,76.0,29.87,South,179,6.0,10.0,100,0.00,,,0.00,,2013-04-12 04:23:00,
2013-04-12 00:33:00,75.0,75.0,29.87,SSE,168,9.0,16.0,100,0.00,,,0.00,,2013-04-12 04:33:00,
2013-04-12 00:43:00,75.0,75.0,29.87,SSE,168,9.0,16.0,100,0.00,,,0.00,,2013-04-12 04:43:00,
2013-04-12 00:53:00,75.0,75.0,29.88,SSE,151,9.0,13.0,100,0.00,,,0.00,,2013-04-12 04:53:00,
2013-04-12 01:03:00,75.0,75.0,29.88,SE,146,9.0,16.0,100,0.00,,,0.00,,2013-04-12 05:03:00,
2013-04-12 01:12:00,75.0,75.0,29.88,SE,146,9.0,16.0,100,0.00,,,0.00,,2013-04-12 05:12:00,
2013-04-12 01:23:00,75.0,75.0,29.87,SE,136,10.0,13.0,100,0.00,,,0.00,,2013-04-12 05:23:00,
2013-04-12 01:32:00,75.0,75.0,29.88,SE,136,8.0,13.0,100,0.00,,,0.00,,2013-04-12 05:32:00,
2013-04-12 01:42:00,75.0,75.0,29.88,SE,136,8.0,13.0,100,0.00,,,0.00,,2013-04-12 05:42:00,
2013-04-12 01:52:00,75.0,75.0,29.89,SSE,154,4.0,11.0,100,0.00,,,0.00,,2013-04-12 05:52:00,
2013-04-12 02:02:00,75.0,75.0,29.89,SE,141,5.0,14.0,100,0.00,,,0.00,,2013-04-12 06:02:00,
2013-04-12 02:12:00,75.0,75.0,29.89,SE,141,5.0,14.0,100,0.00,,,0.00,,2013-04-12 06:12:00,
2013-04-12 02:22:00,75.0,75.0,29.89,SE,144,6.0,8.0,100,0.00,,,0.00,,2013-04-12 06:22:00,
2013-04-12 02:32:00,75.0,75.0,29.88,SSE,160,6.0,11.0,100,0.00,,,0.00,,2013-04-12 06:32:00,
2013-04-12 02:42:00,75.0,75.0,29.88,SSE,160,6.0,11.0,100,0.00,,,0.00,,2013-04-12 06:42:00,
2013-04-12 02:52:00,75.0,75.0,29.88,SSE,153,7.0,11.0,100,0.00,,,0.00,,2013-04-12 06:52:00,
2013-04-12 03:02:00,76.0,76.0,29.88,SSE,149,8.0,15.0,100,0.00,,,0.00,,2013-04-12 07:02:00,
2013-04-12 03:12:00,76.0,76.0,29.88,SSE,149,8.0,15.0,100,0.00,,,0.00,,2013-04-12 07:12:00,
2013-04-12 03:22:00,76.0,76.0,29.88,South,180,6.0,0.0,100,0.00,,,0.00,,2013-04-12 07:22:00,
2013-04-12 03:32:00,76.0,76.0,29.87,SSE,159,6.0,13.0,100,0.00,,,0.00,,2013-04-12 07:32:00,
2013-04-12 03:42:00,76.0,76.0,29.87,SSE,159,6.0,13.0,100,0.00,,,0.00,,2013-04-12 07:42:00,
2013-04-12 03:52:00,76.0,76.0,29.87,SSE,159,5.0,20.0,100,0.00,,,0.00,,2013-04-12 07:52:00,
2013-04-12 04:03:00,76.0,76.0,29.88,SSE,167,6.0,13.0,100,0.00,,,0.00,,2013-04-12 08:03:00,
2013-04-12 04:12:00,76.0,76.0,29.88,SSE,167,6.0,13.0,100,0.00,,,0.00,,2013-04-12 08:12:00,
2013-04-12 04:22:00,76.0,76.0,29.88,South,183,14.0,16.0,100,0.00,,,0.00,,2013-04-12 08:22:00,
2013-04-12 04:32:00,76.0,76.0,29.88,SSE,149,7.0,9.0,100,0.00,,,0.00,,2013-04-12 08:32:00,
2013-04-12 04:42:00,76.0,76.0,29.88,SSE,149,7.0,9.0,100,0.00,,,0.00,,2013-04-12 08:42:00,
2013-04-12 04:52:00,76.0,76.0,29.88,SSW,197,8.0,15.0,100,0.00,,,0.00,,2013-04-12 08:52:00,
2013-04-12 05:02:00,76.0,76.0,29.88,SSE,160,7.0,10.0,100,0.00,,,0.00,,2013-04-12 09:02:00,
2013-04-12 05:12:00,76.0,76.0,29.88,SSE,160,7.0,10.0,100,0.00,,,0.00,,2013-04-12 09:12:00,
2013-04-12 05:22:00,75.0,75.0,29.87,SSE,157,6.0,10.0,100,0.00,,,0.00,,2013-04-12 09:22:00,
2013-04-12 05:33:00,75.0,75.0,29.87,SSE,166,5.0,13.0,100,0.00,,,0.00,,2013-04-12 09:33:00,
2013-04-12 05:43:00,75.0,75.0,29.87,SSE,166,5.0,13.0,100,0.00,,,0.00,,2013-04-12 09:43:00,
2013-04-12 05:53:00,75.0,75.0,29.86,SSE,152,9.0,15.0,100,0.00,,,0.00,,2013-04-12 09:53:00,
2013-04-12 06:03:00,75.0,75.0,29.86,SSE,162,7.0,16.0,100,0.00,,,0.00,,2013-04-12 10:03:00,
2013-04-12 06:13:00,75.0,75.0,29.86,ESE,121,7.0,8.0,100,0.00,,,0.00,,2013-04-12 10:13:00,
2013-04-12 06:23:00,75.0,75.0,29.86,ESE,121,7.0,8.0,100,0.00,,,0.00,,2013-04-12 10:23:00,
2013-04-12 06:34:00,75.0,75.0,29.86,SE,141,6.0,11.0,100,0.00,,,0.00,,2013-04-12 10:34:00,
2013-04-12 06:42:00,75.0,75.0,29.86,SE,141,6.0,11.0,100,0.00,,,0.00,,2013-04-12 10:42:00,
2013-04-12 06:52:00,75.0,75.0,29.86,SE,124,6.0,10.0,100,0.00,,,0.00,,2013-04-12 10:52:00,
2013-04-12 07:03:00,75.0,75.0,29.87,SSE,150,5.0,9.0,100,0.00,,,0.00,,2013-04-12 11:03:00,
2013-04-12 07:13:00,75.0,75.0,29.87,SSE,150,5.0,9.0,100,0.00,,,0.00,,2013-04-12 11:13:00,
2013-04-12 07:22:00,75.0,75.0,29.87,South,179,6.0,9.0,100,0.00,,,0.00,,2013-04-12 11:22:00,
2013-04-12 07:32:00,75.0,75.0,29.90,SSE,156,6.0,9.0,100,0.00,,,0.00,,2013-04-12 11:32:00,
2013-04-12 07:42:00,75.0,75.0,29.90,SSE,156,6.0,9.0,100,0.00,,,0.00,,2013-04-12 11:42:00,
2013-04-12 07:52:00,75.0,75.0,29.89,SE,145,7.0,9.0,100,0.00,,,0.00,,2013-04-12 11:52:00,
2013-04-12 08:02:00,75.0,75.0,29.89,SSE,152,6.0,13.0,100,0.00,,,0.00,,2013-04-12 12:02:00,
2013-04-12 08:13:00,75.0,75.0,29.89,SSE,152,6.0,13.0,100,0.00,,,0.00,,2013-04-12 12:13:00,
2013-04-12 08:22:00,75.0,75.0,29.89,SSE,163,6.0,10.0,100,0.00,,,0.00,,2013-04-12 12:22:00,
2013-04-12 08:33:00,75.0,75.0,29.89,SE,137,7.0,10.0,100,0.00,,,0.00,,2013-04-12 12:33:00,
2013-04-12 08:42:00,75.0,75.0,29.89,SE,137,7.0,10.0,100,0.00,,,0.00,,2013-04-12 12:42:00,
2013-04-12 08:52:00,75.0,75.0,29.89,SSE,158,7.0,15.0,100,0.00,,,0.00,,2013-04-12 12:52:00,
2013-04-12 09:03:00,75.0,75.0,29.89,South,183,8.0,14.0,100,0.00,,,0.00,,2013-04-12 13:03:00,
2013-04-12 09:12:00,75.0,75.0,29.89,South,183,8.0,14.0,100,0.00,,,0.00,,2013-04-12 13:12:00,
2013-04-12 09:22:00,75.0,75.0,29.89,SE,143,4.0,9.0,100,0.00,,,0.00,,2013-04-12 13:22:00,
2013-04-12 09:32:00,75.0,75.0,29.91,SSE,161,8.0,11.0,100,0.00,,,0.00,,2013-04-12 13:32:00,
2013-04-12 09:42:00,75.0,75.0,29.91,SSE,161,8.0,11.0,100,0.00,,,0.00,,2013-04-12 13:42:00,
2013-04-12 09:53:00,75.0,75.0,29.91,SE,133,4.0,9.0,100,0.00,,,0.00,,2013-04-12 13:53:00,
2013-04-12 10:03:00,75.0,75.0,29.91,South,177,8.0,14.0,100,0.00,,,0.00,,2013-04-12 14:03:00,
2013-04-12 10:13:00,75.0,75.0,29.91,South,177,8.0,14.0,100,0.00,,,0.00,,2013-04-12 14:13:00,
2013-04-12 10:23:00,75.0,75.0,29.90,South,190,7.0,12.0,100,0.00,,,0.00,,2013-04-12 14:23:00,
2013-04-12 10:33:00,75.0,75.0,29.91,SE,145,7.0,12.0,100,0.00,,,0.00,,2013-04-12 14:33:00,
2013-04-12 10:42:00,75.0,75.0,29.91,SE,145,7.0,12.0,100,0.00,,,0.00,,2013-04-12 14:42:00,
2013-04-12 10:54:00,75.0,75.0,29.93,SE,140,8.0,12.0,100,0.00,,,0.00,,2013-04-12 14:54:00,
2013-04-12 11:03:00,75.0,75.0,29.92,South,173,4.0,11.0,100,0.00,,,0.00,,2013-04-12 15:03:00,
2013-04-12 11:12:00,75.0,75.0,29.92,South,173,4.0,11.0,100,0.00,,,0.00,,2013-04-12 15:12:00,
2013-04-12 11:22:00,75.0,75.0,29.93,SSE,149,4.0,12.0,100,0.00,,,0.00,,2013-04-12 15:22:00,
2013-04-12 11:33:00,75.0,75.0,29.94,SSE,168,4.0,8.0,100,0.00,,,0.00,,2013-04-12 15:33:00,
2013-04-12 11:43:00,75.0,75.0,29.94,SSE,168,4.0,8.0,100,0.00,,,0.00,,2013-04-12 15:43:00,
2013-04-12 11:53:00,76.0,76.0,29.94,South,172,4.0,10.0,100,0.00,,,0.00,,2013-04-12 15:53:00,
2013-04-12 12:04:00,76.0,76.0,29.93,SE,146,5.0,15.0,100,0.00,,,0.00,,2013-04-12 16:04:00,
2013-04-12 12:13:00,76.0,76.0,29.93,SE,146,5.0,15.0,100,0.00,,,0.00,,2013-04-12 16:13:00,
2013-04-12 12:23:00,77.0,77.0,29.93,South,171,6.0,20.0,100,0.00,,,0.00,,2013-04-12 16:23:00,
2013-04-12 12:33:00,76.0,76.0,29.91,SSE,147,7.0,17.0,100,0.00,,,0.00,,2013-04-12 16:33:00,
2013-04-12 12:42:00,76.0,76.0,29.91,SSE,147,7.0,17.0,100,0.00,,,0.00,,2013-04-12 16:42:00,
2013-04-12 12:53:00,76.0,76.0,29.93,SSE,163,10.0,20.0,100,0.00,,,0.00,,2013-04-12 16:53:00,
2013-04-12 13:03:00,76.0,76.0,29.93,SSE,165,6.0,16.0,100,0.00,,,0.00,,2013-04-12 17:03:00,
2013-04-12 13:12:00,76.0,76.0,29.93,SSE,165,6.0,16.0,100,0.00,,,0.00,,2013-04-12 17:12:00,
2013-04-12 13:23:00,76.0,76.0,29.92,SE,138,17.0,17.0,100,0.00,,,0.00,,2013-04-12 17:23:00,
2013-04-12 13:33:00,76.0,76.0,29.92,South,189,8.0,21.0,100,0.00,,,0.00,,2013-04-12 17:33:00,
2013-04-12 14:06:00,76.0,76.0,29.92,SSE,167,17.0,17.0,100,0.00,,,0.00,,2013-04-12 18:06:00,
2013-04-12 14:20:00,75.0,75.0,29.92,South,186,9.0,9.0,100,0.00,,,0.00,,2013-04-12 18:20:00,
2013-04-12 15:26:00,74.0,74.0,29.91,SSW,213,5.0,11.0,100,0.00,,,0.00,,2013-04-12 19:26:00,
2013-04-12 15:27:00,74.0,74.0,29.91,SSW,213,5.0,11.0,100,0.00,,,0.00,,2013-04-12 19:27:00,
2013-04-12 15:32:00,74.0,74.0,29.87,South,182,15.0,17.0,100,0.00,,,0.00,,2013-04-12 19:32:00,
2013-04-12 15:43:00,74.0,74.0,29.87,South,182,15.0,17.0,100,0.00,,,0.00,,2013-04-12 19:43:00,
2013-04-12 15:53:00,74.0,74.0,29.87,South,171,10.0,16.0,100,0.00,,,0.00,,2013-04-12 19:53:00,
2013-04-12 16:02:00,74.0,74.0,29.87,South,169,11.0,16.0,100,0.00,,,0.00,,2013-04-12 20:02:00,
2013-04-12 16:12:00,74.0,74.0,29.87,South,169,11.0,16.0,100,0.00,,,0.00,,2013-04-12 20:12:00,
2013-04-12 16:22:00,74.0,74.0,29.84,South,180,18.0,26.0,100,0.01,,,0.01,,2013-04-12 20:22:00,
2013-04-12 16:32:00,74.0,74.0,29.85,SSE,168,10.0,20.0,100,0.01,,,0.01,,2013-04-12 20:32:00,
2013-04-12 16:42:00,74.0,74.0,29.85,SSE,168,10.0,20.0,100,0.01,,,0.01,,2013-04-12 20:42:00,
2013-04-12 16:52:00,75.0,75.0,29.83,South,180,9.0,15.0,100,0.01,,,0.01,,2013-04-12 20:52:00,
2013-04-12 17:02:00,75.0,75.0,29.81,SSE,152,8.0,20.0,100,0.01,,,0.01,,2013-04-12 21:02:00,
2013-04-12 17:12:00,75.0,75.0,29.81,SSE,152,8.0,20.0,100,0.01,,,0.01,,2013-04-12 21:12:00,
2013-04-12 17:22:00,75.0,75.0,29.83,South,172,13.0,20.0,100,0.00,,,0.01,,2013-04-12 21:22:00,
2013-04-12 17:33:00,75.0,75.0,29.81,SSE,152,12.0,29.0,100,0.00,,,0.01,,2013-04-12 21:33:00,
2013-04-12 17:43:00,75.0,75.0,29.81,SSE,152,12.0,29.0,100,0.00,,,0.01,,2013-04-12 21:43:00,
2013-04-12 17:53:00,75.0,75.0,29.81,SSE,164,10.0,25.0,100,0.00,,,0.01,,2013-04-12 21:53:00,
2013-04-12 18:02:00,75.0,75.0,29.81,South,173,14.0,23.0,100,0.00,,,0.01,,2013-04-12 22:02:00,
2013-04-12 18:13:00,75.0,75.0,29.81,South,173,14.0,23.0,100,0.00,,,0.01,,2013-04-12 22:13:00,
2013-04-12 18:22:00,75.0,75.0,29.80,South,171,12.0,20.0,100,0.00,,,0.01,,2013-04-12 22:22:00,
2013-04-12 18:32:00,75.0,75.0,29.81,SE,146,15.0,22.0,100,0.00,,,0.01,,2013-04-12 22:32:00,
2013-04-12 18:42:00,75.0,75.0,29.81,SE,146,15.0,22.0,100,0.00,,,0.01,,2013-04-12 22:42:00,
2013-04-12 18:52:00,75.0,75.0,29.80,SE,139,8.0,19.0,100,0.00,,,0.01,,2013-04-12 22:52:00,
2013-04-12 19:04:00,75.0,75.0,29.80,South,181,10.0,15.0,100,0.00,,,0.01,,2013-04-12 23:04:00,
2013-04-12 19:12:00,74.0,74.0,29.82,SSW,195,5.0,14.0,100,0.00,,,0.01,,2013-04-12 23:12:00,
2013-04-12 19:22:00,74.0,74.0,29.82,SSW,195,5.0,14.0,100,0.00,,,0.01,,2013-04-12 23:22:00,
2013-04-12 19:32:00,74.0,74.0,29.85,SSW,192,9.0,11.0,100,0.00,,,0.01,,2013-04-12 23:32:00,
2013-04-12 19:42:00,74.0,74.0,29.85,SSW,192,9.0,11.0,100,0.00,,,0.01,,2013-04-12 23:42:00,
2013-04-12 19:52:00,74.0,74.0,29.86,WSW,245,0.0,4.0,100,0.00,,,0.01,,2013-04-12 23:52:00,
2013-04-12 20:02:00,73.0,73.0,29.87,WSW,253,1.0,1.0,100,0.00,,,0.01,,2013-04-13 00:02:00,
2013-04-12 20:12:00,73.0,73.0,29.87,WSW,253,1.0,1.0,100,0.00,,,0.01,,2013-04-13 00:12:00,
2013-04-12 20:22:00,73.0,73.0,29.88,WSW,253,0.0,0.0,100,0.00,,,0.01,,2013-04-13 00:22:00,
2013-04-12 20:32:00,73.0,73.0,29.89,WNW,291,3.0,7.0,100,0.00,,,0.01,,2013-04-13 00:32:00,
2013-04-12 20:42:00,73.0,73.0,29.89,WNW,291,3.0,7.0,100,0.00,,,0.01,,2013-04-13 00:42:00,
2013-04-12 20:52:00,72.0,72.0,29.89,NW,320,0.0,6.0,100,0.00,,,0.01,,2013-04-13 00:52:00,
2013-04-12 21:02:00,72.0,72.0,29.89,WNW,303,0.0,0.0,100,0.00,,,0.01,,2013-04-13 01:02:00,
2013-04-12 21:13:00,72.0,72.0,29.89,WNW,303,0.0,0.0,100,0.00,,,0.01,,2013-04-13 01:13:00,
2013-04-12 21:22:00,72.0,72.0,29.88,WNW,303,0.0,0.0,100,0.00,,,0.01,,2013-04-13 01:22:00,
2013-04-12 21:32:00,72.0,72.0,29.88,NNW,330,0.0,0.0,100,0.00,,,0.01,,2013-04-13 01:32:00,
2013-04-12 21:42:00,72.0,72.0,29.88,NNW,330,0.0,0.0,100,0.00,,,0.01,,2013-04-13 01:42:00,
2013-04-12 21:52:00,72.0,72.0,29.88,NNW,330,0.0,4.0,100,0.00,,,0.01,,2013-04-13 01:52:00,
2013-04-12 22:02:00,72.0,72.0,29.91,NNW,332,1.0,3.0,100,0.00,,,0.01,,2013-04-13 02:02:00,
2013-04-12 22:12:00,72.0,72.0,29.91,NNW,332,1.0,3.0,100,0.00,,,0.01,,2013-04-13 02:12:00,
2013-04-12 22:22:00,72.0,72.0,29.91,WSW,255,0.0,0.0,100,0.00,,,0.01,,2013-04-13 02:22:00,
2013-04-12 22:32:00,71.0,71.0,29.90,NNW,330,2.0,6.0,100,0.00,,,0.01,,2013-04-13 02:32:00,
2013-04-12 22:42:00,71.0,71.0,29.90,NNW,330,2.0,6.0,100,0.00,,,0.01,,2013-04-13 02:42:00,
2013-04-12 22:53:00,71.0,71.0,29.90,NNW,330,0.0,0.0,100,0.00,,,0.01,,2013-04-13 02:53:00,
2013-04-12 23:02:00,71.0,71.0,29.90,NNW,330,0.0,0.0,100,0.00,,,0.01,,2013-04-13 03:02:00,
2013-04-12 23:12:00,71.0,71.0,29.90,NNW,330,0.0,0.0,100,0.00,,,0.01,,2013-04-13 03:12:00,
2013-04-12 23:23:00,71.0,71.0,29.89,NNW,341,4.0,6.0,100,0.00,,,0.01,,2013-04-13 03:23:00,
2013-04-12 23:33:00,71.0,71.0,29.90,North,0,3.0,6.0,100,0.00,,,0.01,,2013-04-13 03:33:00,
2013-04-12 23:42:00,71.0,71.0,29.90,North,0,3.0,6.0,100,0.00,,,0.01,,2013-04-13 03:42:00,
2013-04-12 23:53:00,71.0,71.0,29.92,North,0,0.0,0.0,100,0.00,,,0.01,,2013-04-13 03:53:00,